TimeCDT,TemperatureF,Dew PointF,Humidity,Sea Level PressureIn,VisibilityMPH,Wind Direction,Wind SpeedMPH,Gust SpeedMPH,PrecipitationIn,Events,Conditions,WindDirDegrees,DateUTC
12:35 AM,23.9,15.6,71,30.08,10.0,NW,12.7,-,N/A,,Clear,310,2013-03-11 05:35:00
12:55 AM,23.4,16.0,73,30.08,10.0,WNW,11.5,-,N/A,,Clear,300,2013-03-11 05:55:00
1:15 AM,22.6,15.8,75,30.07,10.0,WNW,11.5,-,N/A,,Clear,300,2013-03-11 06:15:00
1:35 AM,24.1,16.5,73,30.07,10.0,WNW,12.7,-,N/A,,Clear,300,2013-03-11 06:35:00
1:55 AM,23.4,16.3,75,30.06,10.0,WNW,10.4,-,N/A,,Clear,290,2013-03-11 06:55:00
2:15 AM,21.9,15.8,77,30.06,10.0,WNW,9.2,-,N/A,,Clear,290,2013-03-11 07:15:00
2:35 AM,21.7,16.0,78,30.06,10.0,West,10.4,-,N/A,,Clear,280,2013-03-11 07:35:00
2:55 AM,22.8,16.7,77,30.07,10.0,West,11.5,-,N/A,,Clear,280,2013-03-11 07:55:00
3:15 AM,22.1,16.5,79,30.07,10.0,West,11.5,-,N/A,,Clear,280,2013-03-11 08:15:00
3:35 AM,22.1,16.7,80,30.06,10.0,West,11.5,-,N/A,,Clear,270,2013-03-11 08:35:00
3:55 AM,22.5,17.2,80,30.05,10.0,West,11.5,-,N/A,,Clear,280,2013-03-11 08:55:00
4:15 AM,22.8,17.4,80,30.05,10.0,West,10.4,-,N/A,,Clear,280,2013-03-11 09:15:00
4:35 AM,23.4,18.0,80,30.04,10.0,West,9.2,-,N/A,,Clear,280,2013-03-11 09:35:00
4:55 AM,22.6,17.6,81,30.03,10.0,West,9.2,-,N/A,,Clear,280,2013-03-11 09:55:00
5:15 AM,22.5,17.6,82,30.02,10.0,West,9.2,-,N/A,,Clear,280,2013-03-11 10:15:00
5:35 AM,22.5,17.6,82,30.02,10.0,West,9.2,-,N/A,,Clear,280,2013-03-11 10:35:00
5:55 AM,22.6,17.6,81,30.01,10.0,West,8.1,-,N/A,,Clear,270,2013-03-11 10:55:00
6:15 AM,22.1,17.6,83,30.00,10.0,West,9.2,-,N/A,,Clear,270,2013-03-11 11:15:00
6:35 AM,21.4,16.9,83,29.99,10.0,West,8.1,-,N/A,,Clear,270,2013-03-11 11:35:00
6:55 AM,21.2,17.1,84,30.00,10.0,West,6.9,-,N/A,,Clear,270,2013-03-11 11:55:00
7:15 AM,21.2,17.1,84,30.00,10.0,West,4.6,-,N/A,,Clear,270,2013-03-11 12:15:00
7:35 AM,20.8,16.7,84,30.00,10.0,West,3.5,-,N/A,,Clear,260,2013-03-11 12:35:00
7:55 AM,22.6,17.2,80,30.00,10.0,West,5.8,-,N/A,,Clear,270,2013-03-11 12:55:00
8:15 AM,20.3,16.0,83,29.99,10.0,SW,5.8,-,N/A,,Clear,230,2013-03-11 13:15:00
8:35 AM,23.7,19.4,84,29.99,10.0,WSW,4.6,-,N/A,,Clear,240,2013-03-11 13:35:00
8:55 AM,28.4,21.9,77,29.99,10.0,WSW,5.8,-,N/A,,Clear,240,2013-03-11 13:55:00
9:15 AM,31.8,22.6,69,29.99,10.0,WSW,6.9,-,N/A,,Clear,240,2013-03-11 14:15:00
9:35 AM,34.5,23.4,64,30.00,10.0,WSW,5.8,-,N/A,,Clear,250,2013-03-11 14:35:00
9:55 AM,37.6,23.9,58,30.00,10.0,WSW,4.6,-,N/A,,Clear,240,2013-03-11 14:55:00
10:15 AM,39.9,25.7,57,30.01,10.0,West,6.9,-,N/A,,Clear,270,2013-03-11 15:15:00
10:35 AM,41.7,26.1,54,30.01,10.0,West,6.9,-,N/A,,Clear,280,2013-03-11 15:35:00
10:55 AM,45.7,25.9,46,30.01,10.0,West,8.1,-,N/A,,Clear,260,2013-03-11 15:55:00
11:15 AM,47.3,25.7,43,30.01,10.0,West,6.9,-,N/A,,Clear,260,2013-03-11 16:15:00
11:35 AM,50.0,25.2,38,30.00,10.0,West,5.8,-,N/A,,Clear,260,2013-03-11 16:35:00
11:55 AM,53.1,24.4,33,30.00,10.0,WSW,6.9,-,N/A,,Clear,250,2013-03-11 16:55:00
12:15 PM,55.2,24.8,31,30.00,10.0,West,6.9,-,N/A,,Clear,260,2013-03-11 17:15:00
12:35 PM,56.1,23.7,29,29.99,10.0,West,9.2,-,N/A,,Clear,280,2013-03-11 17:35:00
12:55 PM,58.8,22.1,24,29.98,10.0,WNW,10.4,16.1,N/A,,Clear,290,2013-03-11 17:55:00
1:15 PM,59.7,21.6,23,29.98,10.0,West,11.5,-,N/A,,Clear,280,2013-03-11 18:15:00
1:35 PM,61.0,20.3,21,29.98,10.0,NNW,11.5,17.3,N/A,,Clear,330,2013-03-11 18:35:00
1:55 PM,61.9,21.4,21,29.97,10.0,WNW,12.7,17.3,N/A,,Clear,300,2013-03-11 18:55:00
2:15 PM,63.0,21.7,21,29.96,10.0,NW,11.5,16.1,N/A,,Clear,310,2013-03-11 19:15:00
2:35 PM,63.3,20.5,19,29.95,10.0,West,10.4,-,N/A,,Clear,280,2013-03-11 19:35:00
2:55 PM,64.4,19.6,18,29.93,10.0,NNW,6.9,17.3,N/A,,Clear,340,2013-03-11 19:55:00
3:15 PM,64.4,18.7,17,29.92,10.0,NNW,6.9,-,N/A,,Clear,340,2013-03-11 20:15:00
3:35 PM,65.1,19.8,18,29.92,10.0,West,11.5,19.6,N/A,,Clear,260,2013-03-11 20:35:00
3:55 PM,65.1,19.4,17,29.92,10.0,WNW,10.4,19.6,N/A,,Clear,300,2013-03-11 20:55:00
4:15 PM,65.7,19.2,17,29.92,10.0,WNW,10.4,-,N/A,,Clear,300,2013-03-11 21:15:00
4:35 PM,65.5,19.6,17,29.92,10.0,West,9.2,20.7,N/A,,Clear,280,2013-03-11 21:35:00
4:55 PM,65.7,18.7,17,29.91,10.0,West,6.9,-,N/A,,Clear,270,2013-03-11 21:55:00
5:15 PM,66.0,19.4,17,29.90,10.0,NW,6.9,11.5,N/A,,Clear,320,2013-03-11 22:15:00
5:35 PM,65.7,19.2,17,29.90,10.0,NW,11.5,-,N/A,,Clear,310,2013-03-11 22:35:00
5:55 PM,65.7,18.9,17,29.90,10.0,NW,6.9,-,N/A,,Clear,310,2013-03-11 22:55:00
6:15 PM,65.5,19.9,18,29.89,10.0,North,5.8,-,N/A,,Clear,350,2013-03-11 23:15:00
6:35 PM,65.1,19.2,17,29.89,10.0,NW,6.9,-,N/A,,Clear,320,2013-03-11 23:35:00
6:55 PM,63.5,19.4,18,29.89,10.0,NNW,3.5,-,N/A,,Clear,340,2013-03-11 23:55:00
7:15 PM,61.9,21.9,22,29.89,10.0,Calm,Calm,-,N/A,,Clear,0,2013-03-12 00:15:00
7:35 PM,58.8,23.9,26,29.89,10.0,NE,6.9,-,N/A,,Clear,40,2013-03-12 00:35:00
7:55 PM,55.8,24.4,30,29.89,10.0,ENE,9.2,-,N/A,,Clear,60,2013-03-12 00:55:00
8:15 PM,51.8,25.9,37,29.90,10.0,East,8.1,-,N/A,,Clear,80,2013-03-12 01:15:00
8:35 PM,49.3,27.0,42,29.91,10.0,East,8.1,-,N/A,,Clear,80,2013-03-12 01:35:00
8:55 PM,48.2,27.7,45,29.91,7.0,East,9.2,-,N/A,,Clear,90,2013-03-12 01:55:00
9:15 PM,47.8,27.3,45,29.91,10.0,East,9.2,-,N/A,,Clear,100,2013-03-12 02:15:00
9:35 PM,46.9,27.5,47,29.91,10.0,East,9.2,-,N/A,,Clear,90,2013-03-12 02:35:00
9:55 PM,44.8,28.0,52,29.92,4.0,East,8.1,-,N/A,,Clear,80,2013-03-12 02:55:00
10:15 PM,43.9,27.9,53,29.93,10.0,East,8.1,-,N/A,,Clear,100,2013-03-12 03:15:00
10:35 PM,42.1,28.2,58,29.94,5.0,East,8.1,-,N/A,,Clear,90,2013-03-12 03:35:00
10:55 PM,41.4,27.9,59,29.94,10.0,East,6.9,-,N/A,,Clear,80,2013-03-12 03:55:00
11:15 PM,41.4,28.4,60,29.96,10.0,East,10.4,-,N/A,,Clear,80,2013-03-12 04:15:00
11:35 PM,41.4,28.9,61,29.96,10.0,East,9.2,-,N/A,,Clear,90,2013-03-12 04:35:00
11:55 PM,41.0,30.2,65,29.96,10.0,East,9.2,-,N/A,,Clear,100,2013-03-12 04:55:00